User: anonymous   Login
Location: Newark
(48.7667°N, 7.9833°E)
Time: 12:43:06
(UTC+00:00)
Language:

QB50P2 - Orbit

View from above orbital plane
View from above orbital plane
View from above satellite
View from above satellite

Ground track
Ground track

The orbit data is extracted from the following two-line orbital elements,

1 40032U 14033Y   19296.01358114  .00000231  00000-0  30807-4 0  9998
2 40032  97.8959 213.4229 0012071   7.4316 352.7077 14.88534343290031
Epoch (UTC): 23 October 2019 00:19:33
Eccentricity: 0.0012071
inclination: 97.8959°
perigee height: 594 km
apogee height: 611 km
right ascension of ascending node: 213.4229°
argument of perigee: 7.4316°
revolutions per day: 14.88534343
mean anomaly at epoch: 352.7077°
orbit number at epoch: 29003

The dashed part of the orbit path shows where the satellite is in the earth's shadow,  

DLR